"Pseudo-MPEC" for CEA39F2

Created 2026 Mar 9 20:35:20 UT using Find_Orb

Click here for an explanation of pseudo-MPECs

 
 Astrometry: 
     CEA39F2*1C2026 03 08.28441210 30 16.643+12 00 39.53   ~38D5 20.21GVNEOCPG96
     CEA39F2 1C2026 03 08.28994410 30 12.301+11 58 37.24   ~38D5 19.79GVNEOCPG96
     CEA39F2 1C2026 03 08.29547510 30 07.852+11 56 33.94   ~38D5 20.38GVNEOCPG96
     CEA39F2 1C2026 03 08.30100410 30 03.582+11 54 32.69   ~38D5       VNEOCPG96
     CEA39F2 1C2026 03 09.21807910 19 19.175+06 19 31.58   ~395Z 19.92GVNEOCPI52
     CEA39F2 1C2026 03 09.21873610 19 18.696+06 19 17.58   ~395Z 19.86GVNEOCPI52
     CEA39F2 1C2026 03 09.21938510 19 18.232+06 19 03.72   ~395Z 20.09GVNEOCPI52
     CEA39F2 1C2026 03 09.22003410 19 17.728+06 18 49.46   ~395Z 20.00GVNEOCPI52
     CEA39F2  C2026 03 09.29469410 18 21.939+05 52 01.53   ~397o 20.0 GWNEOCPH01
     CEA39F2  C2026 03 09.29800410 18 19.496+05 50 50.32   ~397o 19.8 GWNEOCPH01
     CEA39F2  C2026 03 09.30898010 18 11.421+05 46 54.69   ~397o 19.6 GWNEOCPH01
     CEA39F2  C2026 03 09.31543210 18 06.689+05 44 36.18   ~397o 19.6 GWNEOCPH01

Station data:
(G96) Mt. Lemmon Survey  (N32.442729 W110.788720)  US/Arizona.  Observer E.
   J. Christensen. Measurers T. Beuden, V. F. Carvajal, D. Fay, J. B.
   Fazekas, D. C. Fuls, A. R. Gibbs, A. D. Grauer, H. Gröller, J. K. Hogan,
   R. A. Kowalski, S. M. Larson, G. J. Leonard, D. Rankin, R. L. Seaman, F.
   C. Shelly, K. W. Wierzchoś. 1.5-m reflector + 10K CCD.
(H01) Magdalena Ridge Observatory, Socorro  (N33.984833 W107.189333)  US/New
   Mexico.  Observers W. H. Ryan, E. V. Ryan. Measurer W. H. Ryan. 2.4-m
   f/8.9 reflector + CCD.
(I52) Steward Observatory, Mt. Lemmon Station  (N32.442570 W110.788920)
   US/Arizona. Measurers T. Beuden, V. F. Carvajal, D. Fay, J. B. Fazekas, D.
   C. Fuls, A. R. Gibbs, A. D. Grauer, H. Gröller, J. K. Hogan, R. A.
   Kowalski, S. M. Larson, G. J. Leonard, D. Rankin, R. L. Seaman, F. C.
   Shelly, K. W. Wierzchoś. 1.0-m prime focus + CCD.

Orbital elements:  CEA39F2
   Perihelion 2026 Feb 11.938759 +/- 0.481 TT = 22:31:48.8 (JD 2461083.438759)
Epoch 2026 Mar  9.0 TT = JDT 2461108.5   Earth MOID: 0.0509   Ma: 0.0564
M  19.158200575 +/- 0.41            (J2000 ecliptic)             AutoNEOCP
n   0.764455395 +/- 0.00227         Peri.  155.536725 +/- 0.48
a   1.184589691 +/- 0.00235         Node   347.052169 +/- 0.0033
e   0.12796530 +/- 0.00133          Incl.   20.278865 +/- 0.10
P   1.289/470.915d         H 25.73  G  0.15   U  8.7
q 1.033003308 +/- 0.000549    Q 1.336176075 +/- 0.00421
From 12 observations 2026 Mar. 8-9 (24.7 hr); mean residual 0".40
Residuals in arcseconds: 
260308 G96  .55-  .61-    260309 I52  .09-  .14-    260309 H01  .05+  .16+    
260308 G96  .20+  .03-    260309 I52  .02+  .01-    260309 H01  .03-  .03+    
260308 G96  .67-  .46-    260309 I52  .25+  .08+    260309 H01  .08-  .05+    
260308 G96  1.0+  1.1+    260309 I52  .11-  .22-    260309 H01  .01-  .02+    

Ephemerides (geocentric):
Date (UTC) HH   RA             Dec           delta  r     elong  mag " sig PA
---- --------  ------------   ------------  ------ ------ -----  --- --------
2026 03 09 21  10 11 58.342   +02 29 12.67  .05394 1.0447 163.1 20.4 2.90  20
2026 03 09 22  10 11 31.345   +02 14 49.87  .05402 1.0447 162.9 20.4 3.13  20
2026 03 09 23  10 11 04.438   +02 00 29.47  .05409 1.0448 162.7 20.4 3.37  21
2026 03 10 00  10 10 37.619   +01 46 11.50  .05417 1.0448 162.6 20.4 3.62  21
2026 03 10 01  10 10 10.890   +01 31 56.00  .05425 1.0448 162.4 20.4 3.88  21
2026 03 10 02  10 09 44.249   +01 17 43.00  .05433 1.0449 162.2 20.4 4.14  21
2026 03 10 03  10 09 17.698   +01 03 32.52  .05441 1.0449 162.0 20.4 4.41  22
2026 03 10 04  10 08 51.235   +00 49 24.60  .05449 1.0450 161.8 20.4 4.69  22
2026 03 10 05  10 08 24.860   +00 35 19.27  .05458 1.0450 161.6 20.4 4.98  22
2026 03 10 06  10 07 58.574   +00 21 16.55  .05466 1.0450 161.4 20.4 5.27  22
2026 03 10 07  10 07 32.376   +00 07 16.47  .05475 1.0451 161.2 20.5 5.57  22
2026 03 10 08  10 07 06.267   -00 06 40.94  .05483 1.0451 161.0 20.5 5.87  22
2026 03 10 09  10 06 40.246   -00 20 35.66  .05492 1.0451 160.9 20.5 6.18  22
2026 03 10 10  10 06 14.312   -00 34 27.65  .05501 1.0452 160.7 20.5 6.50  23
2026 03 10 11  10 05 48.466   -00 48 16.90  .05510 1.0452 160.5 20.5 6.83  23
2026 03 10 12  10 05 22.708   -01 02 03.38  .05519 1.0453 160.3 20.5 7.16  23
2026 03 10 13  10 04 57.037   -01 15 47.07  .05529 1.0453 160.1 20.5 7.49  23
2026 03 10 14  10 04 31.453   -01 29 27.94  .05538 1.0453 159.9 20.5 7.84  23
2026 03 10 15  10 04 05.957   -01 43 05.97  .05547 1.0454 159.7 20.5 8.19  23
2026 03 10 16  10 03 40.548   -01 56 41.14  .05557 1.0454 159.5 20.5 8.54  23
2026 03 10 17  10 03 15.225   -02 10 13.43  .05567 1.0454 159.3 20.5 8.90  23
2026 03 10 18  10 02 49.989   -02 23 42.82  .05577 1.0455 159.1 20.6 9.26  23
2026 03 10 19  10 02 24.840   -02 37 09.28  .05587 1.0455 158.9 20.6 9.64  23
2026 03 10 20  10 01 59.777   -02 50 32.81  .05597 1.0456 158.7 20.6 10.0  23
2026 03 10 21  10 01 34.800   -03 03 53.37  .05607 1.0456 158.5 20.6 10.4  23
2026 03 10 22  10 01 09.909   -03 17 10.96  .05617 1.0456 158.3 20.6 10.8  23
2026 03 10 23  10 00 45.104   -03 30 25.55  .05627 1.0457 158.1 20.6 11.2  23
2026 03 11 00  10 00 20.385   -03 43 37.13  .05638 1.0457 157.9 20.6 11.6  23
2026 03 11 01  09 59 55.751   -03 56 45.69  .05648 1.0457 157.7 20.6 12.0  24
2026 03 11 02  09 59 31.203   -04 09 51.20  .05659 1.0458 157.5 20.6 12.4  24
2026 03 11 03  09 59 06.740   -04 22 53.65  .05670 1.0458 157.3 20.6 12.8  24
2026 03 11 04  09 58 42.362   -04 35 53.03  .05681 1.0459 157.1 20.7 13.2  24
2026 03 11 05  09 58 18.068   -04 48 49.33  .05692 1.0459 156.9 20.7 13.6  24
2026 03 11 06  09 57 53.860   -05 01 42.52  .05703 1.0459 156.7 20.7 14.0  24
2026 03 11 07  09 57 29.736   -05 14 32.61  .05714 1.0460 156.5 20.7 14.5  24
2026 03 11 08  09 57 05.696   -05 27 19.57  .05725 1.0460 156.3 20.7 14.9  24
2026 03 11 09  09 56 41.740   -05 40 03.40  .05736 1.0461 156.0 20.7 15.3  24
2026 03 11 10  09 56 17.868   -05 52 44.08  .05748 1.0461 155.8 20.7 15.8  24
2026 03 11 11  09 55 54.080   -06 05 21.60  .05759 1.0461 155.6 20.7 16.2  24
2026 03 11 12  09 55 30.376   -06 17 55.96  .05771 1.0462 155.4 20.7 16.7  24
2026 03 11 13  09 55 06.755   -06 30 27.15  .05783 1.0462 155.2 20.8 17.1  24
2026 03 11 14  09 54 43.217   -06 42 55.15  .05795 1.0462 155.0 20.8 17.6  24
2026 03 11 15  09 54 19.762   -06 55 19.97  .05807 1.0463 154.8 20.8 18.0  24
2026 03 11 16  09 53 56.390   -07 07 41.58  .05819 1.0463 154.6 20.8 18.5  24
2026 03 11 17  09 53 33.101   -07 19 59.99  .05831 1.0464 154.4 20.8 19.0  24
2026 03 11 18  09 53 09.894   -07 32 15.18  .05843 1.0464 154.2 20.8 19.4  24
2026 03 11 19  09 52 46.769   -07 44 27.16  .05856 1.0464 154.0 20.8 19.9  24
2026 03 11 20  09 52 23.726   -07 56 35.91  .05868 1.0465 153.8 20.8 20.4  24